Satellite-Ground Cal/Val Site Overpasses Predictions

Prediction of Satellite NPP Overpassing Cal/Val Site: Antarctic Dome C

Ground Cal/Val Site Location: Latitude: -75.10, Longitude: 123.35; Satellite-Ground Site NADIR distance within 100 km.

Table of predicted overpasses for the next 14.0 days since TLE Epoch: 12/14/2024
Interval Starting Time Ending Time Minimum Distance Time Minimum Distance (km)
1 12/15/2024 07:31:43 12/15/2024 07:32:13 12/15/2024 07:31:58 0.97
2 12/18/2024 14:55:16 12/18/2024 14:55:44 12/18/2024 14:55:30 24.91
3 12/19/2024 14:36:35 12/19/2024 14:36:52 12/19/2024 14:36:43 82.14
4 12/20/2024 07:38:10 12/20/2024 07:38:37 12/20/2024 07:38:24 37.01
5 12/21/2024 07:19:25 12/21/2024 07:19:45 12/21/2024 07:19:35 72.75
6 12/23/2024 15:01:45 12/23/2024 15:02:07 12/23/2024 15:01:56 62.68
7 12/24/2024 14:42:56 12/24/2024 14:43:21 12/24/2024 14:43:09 46.58
8 12/25/2024 07:44:38 12/25/2024 07:44:58 12/25/2024 07:44:48 72.81
